Regional Weather Roundup
Issued by NWS Jackson, KY

Home | Current Version | Previous Version | Text Only | Print | Product List | Glossary Off
Versions: 1 2 3 4 5 6 7 8 9 10 11 12 13 14 15 16 17 18 19 20 21 22 23 24 25 26 27 28 29 30 31 32 33 34 35 36 37 38 39 40 41 42 43 44 45 46 47 48 49 50

000
ASUS43 KJKL 301311
RWRJKL

EAST KENTUCKY HOURLY WEATHER ROUNDUP
NATIONAL WEATHER SERVICE JACKSON KY
800 AM EST FRI JAN 30 2015

NOTE: "FAIR" INDICATES FEW OR NO CLOUDS BELOW 12,000 FEET WITH
NO SIGNIFICANT WEATHER AND/OR OBSTRUCTIONS TO VISIBILITY.

* THESE REPORTS ARE NOT UNDER NWS QUALITY CONTROL AND MAY NOT
  REPORT WEATHER SUCH AS PRECIPITATION AND FOG.

KYZ079-080-083-085-087-088-110-112-115-119-120-301400
...EASTERN KENTUCKY...

CITY           SKY/WX    TMP DP  RH WIND       PRES   REMARKS
JACKSON        CLOUDY    31  24  75 W9        30.28R WCI  23
LONDON         CLOUDY    33  25  72 W7        30.33R WCI  27
SOMERSET*      CLOUDY    32  27  80 NW5       30.37R WCI  27
MONTICELLO*    CLOUDY    33  28  82 NW7       30.39R WCI  27
MIDDLESBORO*   DRIZZLE   33  27  78 NW8       30.32R WCI  26
HARLAN APT*    CLOUDY    32  27  80 W7        30.28S WCI  26
HAZARD APT*    CLOUDY    32  27  80 W10       30.29R WCI  24
BLACK MTN*       N/A     19  19 100 VRB8        N/A  WCI   9
PIKEVILLE APT* FLURRIES  30  27  86 W9        30.25R WCI  22
BIG SANDY*     CLOUDY    32  28  86 W7        30.26R WCI  25
MOREHEAD APT*  CLOUDY    32  27  80 W8G15     30.31R WCI  25
$$

KYZ035-036-041-042-044-050-067-078-099-301400
...CENTRAL KENTUCKY...

CITY           SKY/WX    TMP DP  RH WIND       PRES   REMARKS
MT STERLING*   CLOUDY    32  27  80 NW8       30.33R WCI  25
FLEMING/MASON* CLOUDY    28  25  86 NW8G16    30.32R WCI  20
DANVILLE*      CLOUDY    32  27  80 NW8       30.36R WCI  25
RICHMOND*      CLOUDY    32  27  80 NW10      30.33R WCI  24
LEXINGTON      CLOUDY    32  21  64 NW12      30.34R WCI  23
FRANKFORT      CLOUDY    33  22  63 NW5       30.34R WCI  29
$$

KYZ091>093-OHZ055-061-077-WVZ005-015-034-035-042-301400
...SOUTHERN OHIO/WEST VIRGINIA...

CITY           SKY/WX    TMP DP  RH WIND       PRES   REMARKS
COVINGTON      CLOUDY    29  16  58 N20G28    30.35R WCI  16
COLUMBUS       CLOUDY    21  12  68 N17G28    30.30R WCI   7
DAYTON         PTCLDY    21  12  68 NW20G26   30.36R WCI   6
WILMINGTON     MOCLDY    23  11  60 NW18      30.33R WCI   9
HUNTINGTON     CLOUDY    29  26  89 NW5       30.26R WCI  24
CHARLESTON     LGT SNOW  31  28  89 NW10      30.20R VSB 1   WCI  22
PINEVILLE*     CLOUDY    32  28  86 MISG      30.22R
BECKLEY        LGT SNOW  26  22  84 NW16G24   30.10R FOG     WCI  14
BLUEFIELD      LGT SNOW  27  21  78 NW16G25   30.09S VSB 1   WCI  15
$$

VAZ002-007-008-TNZ017-027-036-066-071-301400
...SOUTHWEST VIRGINIA/EAST TENNESSEE...

CITY           SKY/WX    TMP DP  RH WIND       PRES   REMARKS
WISE*          FLURRIES  28  27  93 NW10G20   30.19R WCI  19
JONESVILLE*    LGT RAIN  32  25  74 NW6       30.31R WCI  26
ABINGDON*      CLOUDY    32  23  68 NW10      30.18S WCI  24
BRISTOL        CLOUDY    33  23  66 W10G22    30.24R WCI  25
KNOXVILLE      CLOUDY    36  24  62 N9        30.33R WCI  29
OAK RIDGE      CLOUDY    38  23  55 NW7       30.35R WCI  33
CROSSVILLE     CLOUDY    32  24  72 N12G23    30.32R WCI  23
NASHVILLE      CLOUDY    35  23  61 N17G29    30.44R WCI  25
$$

...KEY TO REMARKS...
VSB - VISIBILITY IN MILES
WCI - WIND CHILL INDEX
HX  - HEAT INDEX

$$



USA.gov is the U.S. government's official web portal to all federal, state and local government web resources and services.